Theta_e
352 350 348 345 344 344 345 345 346 346 344 343 343 344 345 344 344 343 342 341 342 343 343 343 343 342 342 343 344 345 345 345 345 346 347 346 346 347 347 348 347 347 347 345 348 347 342 343 344 342 342 337 334 336 339 339 338 336 336 336 336 336 336 335 335 334 335 335 336 336 338 339 339 339 338 339 338 339 339 340 340 340 340 341 340
350 349 348 346 344 344 345 345 345 343 342 343 345 346 346 345 343 343 342 340 341 342 343 343 342 341 341 341 342 344 345 345 344 345 346 347 347 347 346 347 347 347 348 347 348 349 345 343 344 343 343 341 335 333 336 338 340 339 338 338 338 338 337 337 336 335 335 335 335 335 336 338 339 339 339 340 340 340 340 341 340 340 340 340 339
350 351 349 348 346 344 344 344 342 340 341 345 347 347 348 347 347 346 344 343 342 343 342 340 340 339 338 337 338 340 343 344 344 345 346 348 348 347 346 346 347 348 348 348 346 347 347 343 342 343 343 342 338 333 334 337 339 341 341 339 339 339 339 338 338 337 337 336 334 334 334 336 338 339 339 340 340 340 340 340 339 339 338 338 337
349 350 349 348 346 345 344 343 343 343 345 348 348 349 351 351 350 349 347 346 345 344 343 340 340 339 340 339 337 336 338 342 344 345 346 347 348 348 347 347 348 348 348 349 347 346 347 344 341 340 341 343 342 337 334 335 337 340 342 341 340 340 340 339 339 338 339 338 336 334 334 334 336 337 338 339 339 339 338 339 337 336 335 335 335
348 348 348 348 348 347 347 347 347 350 351 351 350 350 351 350 349 348 347 347 347 347 346 345 344 344 343 342 340 337 336 338 342 345 345 346 347 348 348 348 348 348 347 349 348 346 346 345 342 340 340 341 343 342 338 334 335 338 341 340 340 341 341 341 340 339 339 339 337 335 335 335 335 335 335 335 335 334 334 335 334 333 333 333 333
350 349 349 349 350 350 350 351 351 353 354 353 352 350 349 350 350 349 346 346 348 348 347 346 345 345 344 343 342 339 337 337 340 343 345 345 346 347 348 348 349 348 348 347 348 347 346 347 345 344 342 340 341 343 343 339 336 336 338 339 339 340 341 341 340 339 339 338 338 337 336 335 335 335 333 332 332 332 332 332 332 332 332 333 333
353 353 352 352 352 352 352 352 353 353 353 352 352 351 352 351 351 349 348 346 347 347 346 347 346 347 346 345 344 342 342 341 341 342 342 344 346 347 348 348 349 348 348 347 347 347 347 347 347 347 345 343 342 342 343 344 341 336 335 337 339 339 340 341 341 340 339 339 338 337 338 337 336 336 334 333 333 334 335 335 334 334 334 334 335
355 355 355 354 354 353 353 353 353 353 353 353 352 352 352 350 349 348 348 348 347 347 347 347 347 347 346 346 345 345 344 343 342 341 343 346 348 348 349 348 348 348 348 348 348 347 348 347 347 347 347 346 346 344 343 343 343 340 335 334 337 338 338 339 340 341 340 340 339 337 338 337 337 337 337 336 336 337 337 337 337 337 336 336 336
354 353 351 352 352 351 352 353 353 353 353 353 352 351 350 348 348 348 348 349 348 348 348 346 346 345 345 345 345 345 343 342 340 338 341 347 349 349 350 350 349 348 348 349 348 348 348 349 348 348 347 346 346 346 345 344 343 343 338 334 336 339 339 336 336 339 340 340 339 338 338 337 337 337 338 337 336 336 337 337 337 336 335 335 335
350 347 346 346 346 346 346 349 351 352 351 350 349 348 347 346 347 348 348 348 348 348 347 346 345 345 344 344 342 343 343 344 345 343 343 347 349 348 349 350 350 350 349 349 349 348 348 349 350 349 348 347 346 346 346 345 344 343 340 336 333 336 339 337 334 335 337 338 339 339 339 338 337 337 338 338 337 336 336 336 336 335 334 334 333
347 345 343 342 343 343 343 344 346 346 346 346 345 344 344 344 345 346 345 345 345 346 345 345 345 344 342 340 338 339 341 342 344 345 347 349 349 349 348 349 350 351 351 350 349 349 348 348 348 349 349 348 347 347 346 345 345 344 342 340 335 332 334 335 333 334 335 336 337 338 338 337 337 337 337 337 338 337 336 336 335 334 333 333 333
348 346 345 345 345 345 345 344 344 344 344 344 343 343 342 342 344 344 344 343 343 343 342 343 342 341 341 341 341 341 341 341 341 341 343 345 347 347 349 349 349 351 351 351 351 350 349 349 348 348 348 348 349 348 347 346 346 345 344 342 339 334 332 331 333 333 334 335 335 336 336 336 336 336 336 336 336 337 336 336 335 333 333 333 334
347 345 345 346 346 345 345 345 345 346 345 346 345 345 344 344 343 343 343 343 343 342 342 342 342 342 343 342 342 342 342 343 343 342 341 342 342 342 346 348 348 349 350 350 350 350 349 349 348 348 348 348 348 349 349 348 346 346 345 344 342 339 335 332 332 332 333 334 334 335 336 335 335 335 335 335 335 335 335 335 334 334 334 335 335
344 345 345 346 345 346 346 346 347 348 347 347 347 346 346 345 344 343 343 343 343 342 342 342 342 343 342 341 342 342 342 342 342 344 344 344 343 341 341 343 346 348 348 348 348 348 349 349 348 349 349 348 348 349 350 350 349 347 346 345 344 343 340 335 333 332 333 333 333 333 334 335 335 334 334 334 334 334 335 335 335 335 336 336 337
347 348 348 348 348 347 347 348 349 348 348 347 347 347 346 346 345 344 343 343 343 343 343 343 343 342 342 343 344 344 343 343 342 342 343 344 345 345 344 344 346 347 347 348 348 347 347 348 349 349 350 349 349 350 351 351 351 350 349 347 346 345 343 341 337 335 334 334 334 333 333 334 335 335 334 334 333 333 333 334 335 336 337 337 338
346 346 347 347 347 347 348 348 348 348 347 347 347 347 346 346 346 345 343 343 343 343 344 344 343 342 343 344 344 343 346 345 342 341 340 341 344 346 346 345 344 344 345 347 347 346 346 346 348 348 349 349 349 349 350 352 352 352 351 350 349 347 346 345 343 340 337 335 334 334 334 333 333 335 335 334 333 333 333 333 334 336 337 337 339
340 342 344 344 343 344 345 345 346 346 346 345 346 346 344 344 345 345 344 344 344 343 344 343 343 344 343 344 343 345 348 345 341 342 341 341 341 341 343 343 342 342 343 345 345 346 345 345 345 346 347 348 348 348 349 350 351 354 354 353 352 350 347 346 346 344 342 340 338 336 335 334 334 334 334 335 334 333 332 333 334 335 336 338 340
340 341 343 342 342 343 343 343 344 343 344 343 343 344 342 341 341 342 343 344 344 343 342 341 342 343 343 343 343 343 343 342 342 344 342 340 340 340 342 342 341 342 342 342 343 345 346 345 344 344 345 347 347 349 348 348 348 351 354 355 355 353 351 348 347 346 346 344 343 341 339 336 334 334 334 335 334 334 333 333 334 335 336 338 340
339 341 342 342 342 342 341 341 341 341 342 341 341 342 340 339 339 340 342 342 343 343 342 342 342 343 342 341 341 340 340 339 342 343 343 341 340 340 341 340 340 341 342 343 344 344 343 343 343 343 345 346 347 347 348 348 348 348 352 354 354 354 354 350 348 347 346 346 346 346 344 341 338 336 335 335 335 335 335 335 335 335 336 338 340
339 340 342 342 340 340 339 340 340 340 339 338 339 339 338 339 341 341 342 342 342 342 343 343 342 341 340 340 340 340 340 339 340 341 342 343 341 340 340 340 339 340 342 343 343 344 343 343 342 342 343 344 345 346 345 346 348 348 350 352 352 353 354 353 351 349 347 346 346 347 347 347 344 341 339 337 336 336 335 336 336 336 336 338 339
338 338 340 340 339 339 339 338 339 338 337 338 337 337 337 338 340 341 341 340 340 341 342 341 341 340 339 339 340 340 339 340 339 340 340 341 341 340 339 339 339 339 340 340 341 341 343 344 344 343 343 342 343 345 345 346 348 348 348 349 350 352 353 353 352 351 349 347 346 346 346 348 348 348 345 339 336 335 335 336 336 337 337 338 339
338 339 338 338 339 340 339 338 338 337 337 337 336 336 337 337 338 338 338 338 338 339 339 339 340 340 338 339 340 339 339 339 338 339 339 340 340 340 339 338 339 339 339 338 338 338 338 340 343 345 344 343 343 342 343 344 345 346 346 346 347 349 350 351 353 353 351 349 348 347 346 346 347 350 349 345 339 335 335 336 336 337 337 337 338
337 337 337 338 339 339 338 337 337 337 337 337 336 337 337 336 337 337 337 337 337 337 337 338 338 338 337 338 338 338 338 338 337 339 339 339 340 339 338 338 338 339 338 337 336 336 335 336 338 341 344 345 344 342 341 341 341 342 344 345 346 346 347 349 351 352 352 351 351 349 348 346 347 348 350 349 345 338 335 334 335 336 336 337 338
337 336 337 339 339 338 338 338 338 338 338 337 336 337 336 336 336 336 336 336 336 336 336 337 337 338 337 336 336 335 336 336 336 337 338 339 339 338 337 337 338 337 337 336 336 335 335 335 335 338 341 344 344 343 342 340 339 339 340 342 343 344 345 346 348 351 351 350 350 351 351 349 348 348 348 350 350 345 338 335 335 335 336 336 338
337 338 338 338 338 338 338 338 338 337 337 337 337 336 336 336 335 335 335 335 336 336 335 335 336 336 337 335 334 334 334 334 334 334 336 337 337 337 336 337 337 336 335 335 336 336 336 336 336 336 338 341 342 342 342 341 339 337 336 337 337 339 341 343 345 347 349 350 349 349 351 352 350 348 348 347 349 349 345 339 335 334 335 336 338
338 339 339 337 337 338 338 338 338 337 337 337 336 336 335 335 335 335 334 334 335 335 335 334 334 334 335 334 334 334 334 333 332 333 335 336 336 336 336 336 336 335 335 335 335 335 336 335 336 337 337 338 339 339 341 340 339 337 335 334 334 336 338 341 343 344 345 348 349 348 349 351 351 349 348 348 347 348 348 344 339 336 335 335 337
338 338 337 337 337 338 337 337 337 337 337 336 336 335 335 334 334 334 334 334 335 335 334 333 333 334 334 334 334 334 333 332 332 332 333 334 335 335 336 337 336 334 333 334 333 333 334 335 335 336 336 337 337 338 339 340 339 337 336 335 334 335 336 338 342 344 344 346 348 347 347 349 350 350 349 348 347 346 346 346 343 341 338 338 338
337 337 337 337 337 336 336 336 336 336 336 336 335 335 335 334 334 334 334 334 335 334 333 333 333 334 333 334 334 333 332 331 331 332 332 333 333 333 333 335 336 334 333 332 333 332 333 334 334 335 335 336 336 338 340 341 339 339 338 337 336 335 335 336 340 345 346 347 347 347 347 348 350 351 351 349 348 347 346 345 345 344 343 342 341
337 336 336 336 335 335 335 335 335 335 335 335 334 335 334 334 334 333 334 335 335 335 333 334 335 334 334 333 333 332 331 331 330 331 331 331 330 330 330 332 333 334 334 332 332 332 332 332 333 333 334 335 336 337 338 339 338 339 338 337 337 337 336 337 341 345 346 347 347 347 347 349 351 352 351 350 349 349 347 346 345 345 345 344 342
334 334 334 335 334 335 335 335 335 335 335 335 335 334 334 334 334 333 334 335 336 335 334 334 335 334 334 333 331 332 331 329 329 329 328 325 325 326 327 328 330 331 333 332 331 330 331 331 332 333 333 333 334 335 336 336 337 339 340 339 339 338 337 338 340 344 345 346 345 345 346 349 351 351 351 351 350 349 349 348 346 346 345 344 342
333 333 335 334 333 333 334 334 334 334 335 335 335 334 334 334 334 334 334 335 336 336 335 335 335 335 334 332 331 331 330 329 328 327 323 321 322 322 323 324 325 327 329 330 330 329 329 329 329 329 330 331 332 333 335 335 337 338 340 341 340 340 340 340 341 343 344 344 345 345 346 347 349 349 349 350 350 349 349 348 348 347 346 345 344
333 333 333 333 332 333 333 333 333 333 334 334 334 334 335 335 335 335 335 336 335 336 336 335 335 336 334 332 330 330 330 329 328 324 320 320 320 320 321 322 323 324 326 328 328 327 326 326 326 326 327 329 331 333 334 335 335 336 337 338 339 341 343 343 343 343 344 345 346 346 345 346 347 347 348 349 349 349 349 349 349 347 347 346 345
333 333 332 333 333 333 333 333 333 332 333 334 334 334 335 335 335 335 334 335 335 336 335 334 335 336 334 332 330 330 329 330 328 324 319 319 320 320 321 322 322 323 325 327 327 326 325 324 324 324 325 327 329 332 334 335 336 336 336 336 337 340 344 345 345 344 344 344 346 347 346 345 346 346 347 347 348 348 348 349 349 349 348 346 345
333 333 333 333 333 333 333 333 332 332 332 332 333 334 334 334 335 334 333 333 334 335 335 334 335 335 333 331 330 329 329 329 328 323 319 319 320 321 321 321 323 323 324 325 326 326 325 324 323 324 324 326 328 330 333 335 336 336 337 337 337 338 342 345 346 344 343 343 344 345 346 345 345 346 346 346 345 346 348 349 349 348 348 346 344
333 333 333 334 333 333 333 332 332 332 331 332 333 334 334 334 334 334 332 332 332 333 334 334 335 334 333 331 330 329 329 329 328 324 319 320 321 322 321 321 322 323 323 324 325 325 325 324 323 323 323 325 326 328 331 334 335 336 336 337 337 337 340 344 347 347 344 342 342 343 344 344 344 344 345 345 345 345 347 348 347 347 346 345 343
332 332 332 333 332 332 332 331 331 331 331 332 332 334 334 333 333 332 332 332 332 332 332 334 334 333 332 331 330 329 329 328 328 325 321 321 322 322 322 322 322 323 323 323 324 324 324 324 323 323 323 324 325 327 330 332 334 336 337 337 338 338 339 340 344 346 343 341 340 342 342 342 342 343 344 345 344 345 346 347 347 346 345 344 344
332 332 332 331 331 330 330 331 331 332 333 331 331 332 334 333 332 331 331 331 331 331 330 331 333 333 332 331 330 329 329 328 328 326 322 321 322 322 322 322 323 323 323 323 323 323 323 323 323 323 323 324 325 326 329 332 334 336 337 338 338 338 338 338 340 342 342 341 341 343 342 341 341 341 343 345 345 345 346 347 347 347 346 345 346
332 332 331 331 330 330 330 330 332 331 331 330 329 330 331 332 331 331 332 333 332 331 330 330 332 333 332 331 330 329 329 328 328 327 323 319 320 321 321 322 324 324 324 324 324 323 323 323 322 323 323 324 325 326 328 331 334 336 338 339 339 339 339 340 341 342 343 344 344 342 341 340 341 342 344 345 346 346 345 347 347 348 348 347 347
332 331 332 332 331 331 331 331 330 330 329 329 329 329 330 331 331 333 334 334 333 331 330 331 331 332 332 331 330 329 328 328 328 328 325 321 319 320 321 322 324 325 325 325 324 323 322 322 322 323 323 324 325 326 327 329 332 335 336 337 339 340 340 342 344 344 344 345 344 342 341 340 341 343 345 346 347 346 346 346 347 348 348 348 347
331 332 333 333 332 332 331 330 329 330 329 329 330 330 331 332 333 335 335 334 333 331 330 329 329 330 331 331 330 329 329 328 328 328 327 325 322 322 323 323 324 326 326 326 324 323 322 322 322 322 323 324 325 325 326 328 331 334 336 336 338 339 340 342 343 345 345 345 344 343 342 342 343 345 347 345 345 346 346 346 347 348 349 348 347
332 333 333 333 333 332 330 330 330 330 329 329 330 330 331 331 333 334 334 333 333 331 328 325 326 328 329 329 329 329 328 329 328 328 328 327 327 326 325 325 325 326 327 326 324 322 321 322 322 322 323 324 325 325 326 327 329 332 334 335 337 338 340 341 343 344 345 345 344 344 343 343 345 346 345 343 342 344 347 348 349 349 349 348 347
333 334 334 334 333 331 331 330 330 329 328 329 330 330 330 331 331 332 332 332 333 331 328 327 327 327 328 329 328 328 328 328 328 328 328 328 328 328 327 327 327 327 327 325 323 321 321 322 322 322 323 323 324 324 325 326 327 328 331 333 336 337 338 340 341 343 345 346 345 345 344 344 345 346 344 340 339 343 348 350 350 350 350 349 348
334 334 335 335 333 332 331 330 329 328 328 329 329 330 330 329 329 330 331 331 332 331 331 331 330 329 329 329 328 327 328 329 328 328 328 328 328 328 328 328 328 328 327 324 322 321 321 321 321 322 323 323 324 324 324 325 326 326 328 331 334 336 338 339 341 342 344 346 346 346 345 345 345 345 344 342 339 342 348 350 349 349 348 348 348
334 335 335 335 334 333 331 329 329 328 329 329 329 329 329 328 328 328 328 330 331 331 331 331 330 330 330 329 328 328 328 328 328 328 327 327 327 328 328 329 328 328 326 323 321 321 320 321 321 322 322 323 323 323 324 325 325 326 327 329 332 336 337 338 340 341 343 345 347 347 347 346 346 347 348 346 343 342 344 346 347 347 346 345 346
335 335 335 335 334 332 329 328 328 328 328 328 328 328 328 328 328 327 326 327 328 329 329 330 329 330 331 329 328 327 327 327 326 327 327 326 327 327 328 329 329 329 326 322 320 320 320 321 321 322 322 322 323 323 324 324 325 326 327 328 331 334 336 337 338 340 341 343 346 348 347 347 348 349 350 349 348 347 345 344 345 346 346 346 345
335 335 336 335 333 332 330 329 328 328 328 328 329 329 329 330 329 327 326 326 326 326 327 327 328 331 332 330 329 327 326 325 326 326 326 326 327 327 328 329 329 327 324 321 319 319 320 320 321 322 322 322 322 323 323 324 324 325 326 327 329 331 335 336 338 339 340 341 344 346 347 347 347 348 349 349 349 349 348 346 345 345 346 346 346
336 336 336 335 333 331 329 329 329 329 329 329 329 329 329 329 328 327 326 326 326 325 325 325 327 330 332 330 329 328 326 324 325 325 326 326 327 328 329 329 329 327 323 320 319 319 321 321 321 322 321 321 322 323 323 324 324 324 325 325 326 328 331 335 338 339 340 341 343 346 346 346 348 348 349 348 349 349 349 349 347 346 346 346 346
336 337 336 335 334 331 329 329 329 329 328 330 330 329 329 329 327 327 327 326 326 325 324 325 328 331 332 331 330 328 325 324 324 325 326 327 328 329 329 328 327 324 322 320 319 321 322 322 321 320 320 321 322 322 323 323 323 324 324 325 326 327 330 334 336 339 340 341 343 345 344 344 347 349 349 348 349 349 349 349 348 348 347 347 346
337 336 334 334 333 331 330 329 329 329 328 329 328 328 328 328 327 327 327 326 326 325 324 326 328 330 331 331 331 328 326 325 325 325 327 328 328 327 326 325 323 322 322 321 322 322 322 321 319 319 320 321 322 323 323 324 325 324 324 324 326 329 332 335 337 338 340 341 343 344 343 343 345 348 348 349 349 349 349 349 349 349 349 349 348
335 332 332 332 333 331 330 330 330 329 328 328 327 326 326 327 327 327 325 324 324 324 326 328 329 330 331 331 330 328 327 325 325 326 328 327 325 323 322 322 322 322 322 322 322 322 321 319 318 319 320 321 322 323 324 325 327 327 324 323 325 326 330 334 337 338 339 340 341 343 342 342 344 347 348 348 349 349 350 349 349 349 350 350 350
331 331 332 332 331 330 329 329 329 328 328 328 327 326 326 327 327 326 324 324 325 327 329 330 331 331 330 329 329 328 327 326 326 328 327 323 322 322 322 322 322 322 321 321 321 321 320 319 318 319 321 322 322 323 324 326 328 329 327 325 324 324 327 332 337 338 339 339 340 341 342 342 343 345 347 347 347 348 348 349 349 349 349 350 351
Wind_Speed
11 12 10 9 8 7 7 7 8 8 9 10 10 9 10 10 11 11 12 12 11 10 10 10 10 11 11 11 10 10 10 10 9 8 8 8 8 9 11 13 16 18 20 19 21 22 21 21 22 22 21 20 20 21 21 20 19 18 18 18 17 17 16 16 16 16 16 16 15 15 15 14 14 14 14 13 13 13 12 11 10 10 9 8 7
13 12 11 10 9 9 9 8 8 10 11 12 11 11 10 10 11 11 12 12 11 11 10 9 10 10 11 11 11 11 12 13 10 9 9 10 11 11 12 14 15 17 20 22 22 23 22 21 22 22 23 22 21 21 22 21 21 20 20 19 19 18 18 17 17 17 17 17 16 16 16 16 15 15 15 15 14 14 13 12 11 10 10 9 8
13 12 11 11 11 11 11 11 11 12 12 12 11 11 12 11 10 10 11 13 13 12 10 10 10 11 13 14 13 12 12 13 12 11 10 11 12 13 14 14 15 18 20 23 24 24 23 22 22 22 23 23 23 22 23 23 22 22 22 21 21 20 19 19 18 18 18 17 17 17 17 17 17 16 16 15 15 14 14 13 12 11 11 10 9
12 12 13 13 13 13 13 14 13 12 12 12 10 10 10 9 9 12 13 14 15 15 14 13 14 14 16 17 17 15 13 13 13 13 13 13 13 14 15 15 15 18 21 24 25 26 25 24 23 23 23 24 25 24 24 24 24 24 23 23 23 22 21 21 20 19 19 19 18 18 18 18 18 17 17 16 15 15 14 14 13 13 12 12 10
12 13 14 14 14 13 13 12 12 11 12 12 10 10 11 11 13 16 17 16 15 15 15 15 16 18 19 20 19 17 15 14 14 14 15 15 15 14 14 15 15 18 21 24 26 27 27 26 25 25 24 24 25 26 26 25 25 25 25 25 24 23 23 22 22 21 21 20 20 20 19 19 19 19 18 18 17 16 16 15 15 14 13 13 12
12 13 14 14 13 13 12 11 10 11 12 13 13 13 14 16 17 17 16 17 15 14 14 16 19 20 21 20 20 18 15 14 14 14 15 16 17 17 17 17 17 18 21 25 27 27 28 28 27 26 26 25 25 26 27 27 27 27 27 26 26 25 24 24 24 23 22 22 21 21 21 20 20 20 19 19 18 18 17 16 15 15 14 14 13
12 13 13 13 13 13 13 12 12 13 14 15 16 17 18 19 18 15 14 15 15 15 15 16 17 18 19 19 19 17 14 13 14 15 16 16 17 19 20 21 20 20 21 24 27 28 28 28 28 28 27 27 27 26 27 28 28 28 28 28 28 27 26 25 25 25 24 23 23 22 22 22 21 21 20 20 19 18 18 17 16 15 15 15 14
14 14 15 15 15 15 14 14 13 14 15 16 16 17 18 18 15 14 15 15 14 14 14 14 15 17 18 19 18 16 15 16 18 19 19 18 18 20 21 22 22 22 23 24 26 27 28 28 29 29 29 29 28 28 27 28 29 29 30 30 30 29 28 27 26 26 25 25 25 24 23 23 22 22 21 21 20 19 19 18 17 17 16 16 16
14 14 14 14 14 13 13 12 12 13 14 14 14 15 15 15 14 13 14 14 14 14 14 15 16 17 17 18 18 18 18 19 21 23 23 21 20 21 22 22 23 23 24 25 26 27 28 28 29 29 30 31 30 30 29 29 30 30 31 31 31 30 30 29 28 27 27 27 26 26 25 25 24 23 22 22 21 21 20 19 19 18 18 17 17
11 11 10 10 10 9 9 9 10 12 13 14 14 14 14 14 15 15 14 13 14 14 15 16 17 19 20 19 20 20 20 19 19 20 22 24 22 22 22 23 24 24 25 26 27 27 28 29 29 29 31 32 32 32 32 31 31 31 32 32 32 32 31 31 31 29 28 28 28 27 27 26 25 25 24 23 23 22 21 21 20 20 19 19 18
9 10 9 8 8 8 8 8 9 11 12 13 13 13 12 11 13 14 13 13 14 15 16 17 18 20 20 20 20 20 20 18 18 19 20 22 22 22 23 24 24 25 26 26 27 28 29 29 30 30 32 33 33 34 34 33 33 32 33 33 33 33 33 33 33 32 30 30 29 29 28 28 27 26 26 25 24 24 23 22 22 21 21 20 19
9 9 9 9 9 8 9 8 9 9 10 11 11 10 10 10 11 12 13 13 14 14 14 14 15 17 18 19 18 18 19 18 18 19 21 22 23 23 23 23 24 24 25 25 26 27 28 29 31 32 32 33 34 34 35 35 36 35 34 35 34 34 34 34 34 34 33 32 31 31 30 30 29 29 28 27 26 25 25 24 23 22 22 21 20
7 7 7 8 9 9 9 9 9 10 11 11 10 10 10 11 10 10 12 14 16 15 12 11 12 13 14 15 18 19 16 16 16 17 20 22 24 24 24 23 23 23 24 24 24 25 27 29 31 33 33 33 34 35 36 36 37 38 37 36 36 36 36 36 36 35 34 34 33 33 32 32 31 31 30 29 28 27 26 26 24 24 23 22 21
3 5 6 7 9 10 11 11 11 11 12 12 12 12 12 11 10 10 11 13 15 15 13 11 8 8 9 10 14 15 12 11 14 15 17 19 21 23 24 24 24 24 25 26 26 26 27 29 29 31 33 34 35 35 36 37 37 38 39 39 38 37 37 37 37 36 36 35 35 35 34 34 33 32 32 31 30 29 28 27 26 24 23 23 22
3 4 6 7 9 10 11 12 11 11 12 13 13 14 13 12 11 11 11 12 14 14 13 10 8 9 8 5 5 7 8 8 10 15 17 17 18 19 20 21 21 23 25 27 27 26 26 28 28 29 31 33 34 34 35 36 37 38 39 40 40 39 38 37 37 37 37 37 36 36 36 36 35 34 34 33 32 31 30 28 27 26 24 23 22
2 3 3 4 4 4 6 7 7 8 9 9 11 12 11 10 11 11 10 11 13 12 11 9 10 10 5 2 2 3 4 5 11 18 17 12 13 15 16 16 17 18 21 25 28 28 28 28 29 30 32 32 33 34 34 34 33 35 37 39 40 41 40 39 38 38 38 38 38 37 37 37 37 36 35 35 33 32 31 30 28 27 25 24 24
3 3 3 4 5 5 5 4 5 5 5 7 8 8 10 10 9 9 8 9 10 10 12 11 11 10 6 4 3 1 2 4 10 13 13 13 15 15 14 13 14 16 19 23 26 28 29 29 29 30 32 32 32 33 34 33 31 31 33 36 38 41 42 41 41 40 39 39 39 39 39 38 38 38 37 36 35 34 33 32 30 28 27 26 26
3 3 4 5 5 4 4 4 4 5 5 6 7 7 10 10 9 8 6 6 7 8 11 11 10 9 9 9 8 7 6 6 5 4 11 18 15 12 14 15 16 18 20 22 23 25 26 26 26 28 30 32 32 32 31 32 32 31 31 33 35 38 42 43 43 42 41 40 39 39 40 40 40 39 39 38 37 36 35 33 31 30 29 28 27
3 3 4 2 3 4 4 5 5 6 5 7 8 8 10 11 9 8 7 6 6 7 9 10 10 10 10 10 12 12 11 9 5 3 7 11 11 13 16 16 18 19 20 22 22 23 23 23 23 25 28 30 32 33 31 30 32 33 32 32 33 34 39 43 44 44 44 42 40 39 39 40 41 41 40 40 38 37 36 35 34 32 31 30 29
4 3 3 3 5 4 3 5 5 6 6 7 8 9 11 11 10 9 8 7 7 8 8 9 10 11 12 12 12 12 12 11 10 8 3 4 9 14 15 17 19 19 19 20 21 22 24 24 25 25 27 29 31 34 34 32 31 33 33 33 32 32 34 39 42 44 45 45 43 41 40 39 40 41 41 41 40 39 37 36 35 34 33 32 31
4 4 4 6 7 3 2 4 4 6 7 7 7 7 8 10 10 9 9 8 8 8 9 9 9 10 11 12 12 13 12 10 9 9 4 3 5 6 11 17 18 17 18 18 20 22 23 24 26 27 27 27 28 30 33 33 33 33 33 32 32 32 33 35 38 41 44 46 45 44 43 41 40 40 41 42 42 40 39 38 37 36 35 34 33
4 4 4 6 5 2 3 5 5 6 5 6 7 7 7 8 8 8 9 9 9 7 8 8 8 8 8 9 10 11 10 7 7 8 6 4 4 4 10 13 12 15 19 21 21 22 23 24 25 27 27 27 26 26 29 32 33 33 33 33 33 33 34 35 36 38 40 43 45 46 45 44 42 40 40 41 42 42 41 39 38 37 36 35 34
5 5 4 4 2 2 5 6 6 6 5 6 7 7 8 8 8 8 8 8 8 8 7 7 8 8 8 8 8 9 8 7 9 12 8 5 4 4 8 12 13 16 20 22 24 25 25 26 26 25 25 27 26 24 25 27 29 31 33 34 36 37 37 37 37 37 38 38 41 45 46 45 45 43 41 40 41 42 42 41 40 39 38 37 36
5 5 3 2 2 3 5 5 4 5 5 7 7 6 7 8 8 8 8 8 8 8 7 6 7 7 8 8 8 8 9 9 12 14 12 11 9 4 7 12 11 14 21 23 24 25 25 26 26 26 25 26 27 26 27 27 28 29 31 33 35 36 38 39 39 39 39 38 38 41 45 46 45 45 44 41 40 41 42 42 41 40 39 38 37
4 4 3 3 4 5 5 4 4 5 6 6 7 7 7 7 8 9 8 7 7 7 7 6 6 6 7 8 8 8 8 10 11 13 14 15 13 7 9 12 9 13 20 21 21 23 25 25 24 24 25 27 29 30 30 31 32 31 31 31 32 33 35 38 40 41 41 41 39 38 42 45 45 45 46 44 43 42 42 42 42 41 40 39 38
4 4 5 6 6 5 4 5 5 5 6 6 7 7 7 7 8 9 9 7 6 7 7 6 6 6 7 8 8 8 9 10 12 13 13 14 14 11 11 12 11 13 15 18 20 19 21 24 23 22 25 28 30 32 32 32 32 32 31 31 31 31 33 35 39 42 42 43 42 38 40 45 46 44 45 45 45 44 43 42 42 42 41 41 40
5 6 7 5 4 4 5 6 6 6 6 7 8 7 7 7 8 9 9 7 6 7 7 6 7 7 7 8 8 8 10 11 12 12 12 13 14 15 13 9 10 10 9 14 18 18 21 24 23 23 25 27 30 31 32 32 31 32 32 33 32 31 31 32 35 39 41 43 43 40 38 42 46 46 43 43 44 44 44 44 43 42 42 41 41
5 4 3 2 3 5 6 7 7 7 8 9 9 8 8 7 8 9 9 8 8 8 7 7 8 7 8 8 8 9 11 11 12 12 13 13 13 15 15 11 9 8 7 9 11 15 22 23 22 24 23 25 28 29 30 31 31 31 31 32 33 33 32 32 33 36 38 41 42 40 36 37 44 47 45 42 42 42 43 44 44 43 43 42 42
4 3 3 4 6 7 7 8 8 8 9 11 11 9 9 8 8 9 9 9 10 9 7 8 8 7 7 8 8 10 11 11 12 12 12 13 13 14 15 13 11 8 7 9 8 11 20 22 21 24 24 23 26 28 29 31 32 32 31 31 31 32 32 32 33 34 36 38 39 37 36 36 41 46 45 44 42 41 41 42 42 43 43 43 42
4 4 5 5 7 8 8 8 8 9 10 11 10 9 8 8 9 10 10 10 10 9 8 8 8 8 8 8 8 9 10 10 11 12 12 13 14 15 14 14 13 10 8 10 9 12 20 23 23 25 27 27 28 30 31 33 33 33 32 32 31 31 32 31 31 32 34 37 38 36 37 38 41 43 44 44 44 42 42 42 42 42 42 42 42
6 6 6 7 9 9 8 9 9 9 10 10 10 9 9 10 10 11 11 10 10 10 9 9 9 9 8 8 8 8 9 9 9 10 11 12 13 15 15 14 14 14 13 11 9 12 19 23 26 28 30 31 32 32 33 34 34 32 31 31 32 33 33 32 31 31 31 34 37 38 40 42 43 43 43 44 44 43 43 43 43 42 42 42 42
9 9 9 10 10 9 9 9 9 9 10 11 11 11 11 12 12 11 11 10 10 11 10 10 10 9 9 9 9 9 8 7 8 9 10 12 12 13 15 15 14 14 15 13 10 14 21 24 28 31 31 31 32 33 34 36 36 35 33 33 34 34 34 34 32 31 31 32 36 40 42 43 43 42 42 43 44 44 43 44 44 43 42 42 42
11 11 12 11 10 10 10 10 10 10 11 12 12 12 13 14 13 12 12 11 11 12 11 11 10 10 10 9 10 10 9 7 8 9 10 10 11 13 14 14 15 14 15 15 12 14 21 25 28 32 31 30 31 31 33 35 35 35 35 35 35 34 34 35 34 33 32 32 35 40 42 42 41 41 41 41 43 44 44 43 43 44 43 42 42
13 13 14 13 11 11 12 12 12 12 12 13 12 12 13 15 14 14 13 12 12 13 12 11 11 10 10 10 11 11 9 8 9 9 10 10 11 13 14 13 15 15 15 16 16 15 20 25 29 33 32 29 30 31 31 33 35 34 34 35 36 35 34 35 36 35 34 34 36 39 41 42 41 41 40 41 41 43 44 44 43 43 43 43 42
16 16 16 14 13 13 14 14 15 14 14 14 13 13 14 14 14 14 14 14 14 15 14 13 12 11 11 11 12 12 10 10 11 11 10 10 11 13 14 13 14 16 16 17 18 18 20 25 27 31 33 31 31 32 31 32 35 35 35 36 36 36 35 35 36 37 37 36 38 40 41 41 41 41 41 41 41 42 44 44 43 42 42 42 41
18 16 14 12 12 13 14 15 17 17 15 13 14 15 15 14 14 14 15 15 16 15 14 13 13 12 12 13 13 13 12 13 14 13 12 12 13 13 14 15 15 17 19 19 20 21 22 25 26 30 33 32 32 34 32 31 34 34 34 35 36 36 36 35 36 38 39 39 39 40 40 39 40 41 41 41 41 41 43 44 43 42 41 41 41
15 13 10 9 10 11 12 14 15 15 14 11 12 13 15 14 14 15 15 15 15 14 13 14 14 14 14 15 15 14 14 15 15 15 13 13 14 15 16 17 17 19 20 21 22 23 23 25 27 29 33 33 32 33 32 30 32 33 32 33 35 35 35 36 37 39 40 40 40 40 38 37 38 40 41 41 42 42 43 43 43 43 41 40 40
10 9 9 10 10 10 11 10 9 10 11 11 12 13 14 15 14 15 15 16 15 14 14 14 14 15 15 16 17 17 16 17 17 17 15 14 15 17 17 18 19 20 22 22 23 24 25 27 29 28 31 32 30 31 32 29 30 31 29 29 32 33 33 34 35 37 39 40 41 40 38 37 38 39 40 40 41 43 45 44 44 43 41 40 39
8 9 9 9 9 10 10 9 10 12 13 13 13 14 15 15 14 14 15 16 16 15 15 15 15 15 16 18 19 19 18 18 19 19 18 17 17 18 19 20 21 22 23 23 24 25 26 27 28 27 27 30 29 29 31 31 30 31 28 26 27 29 30 32 33 35 37 38 39 38 38 38 37 37 37 38 38 40 43 44 44 42 40 39 39
10 9 8 8 10 12 12 13 15 14 13 12 12 12 13 13 14 15 15 15 15 15 15 15 15 16 17 18 19 20 20 20 20 21 22 21 20 21 22 22 22 22 23 23 24 25 26 26 27 27 26 28 28 28 29 29 26 27 27 26 25 26 28 29 31 33 34 34 36 36 37 37 36 36 35 34 34 36 39 42 42 41 40 39 39
13 11 9 10 12 14 15 16 14 12 12 13 13 12 13 13 14 14 15 15 14 14 14 14 15 16 17 18 19 20 20 20 20 21 22 23 23 24 24 24 23 23 23 23 24 25 25 24 25 26 24 24 26 25 25 25 24 25 27 27 26 27 27 27 29 32 32 32 33 34 35 35 36 37 36 34 34 34 36 39 41 40 38 38 38
13 12 12 13 13 15 16 16 13 13 14 15 14 14 13 13 13 13 15 16 16 16 16 15 16 16 17 18 19 19 19 19 20 21 22 23 24 24 25 25 24 23 23 24 24 24 23 22 24 25 21 21 25 26 24 26 27 28 28 27 25 26 25 23 24 29 31 31 31 31 33 34 34 35 36 36 36 35 35 38 39 38 37 37 38
14 15 15 15 15 15 16 16 15 15 15 15 15 16 15 14 14 14 14 16 16 17 17 17 17 17 17 18 19 19 19 20 22 23 23 24 24 24 25 25 23 21 22 24 24 23 22 22 24 25 22 22 27 30 27 27 28 27 27 28 26 25 22 17 15 20 27 31 30 29 30 32 32 33 35 36 37 37 37 37 37 36 36 36 37
17 17 17 16 16 16 15 15 14 14 15 16 17 18 17 15 14 14 14 15 16 17 19 18 18 18 17 18 18 19 20 22 24 25 24 24 24 24 24 24 23 22 24 25 25 24 23 23 25 27 26 25 28 31 30 28 28 28 28 28 27 25 22 19 16 17 23 28 29 27 27 29 29 30 33 35 36 38 38 37 36 35 35 35 36
18 18 18 17 16 17 16 15 15 15 16 17 17 16 17 16 14 13 13 15 16 18 20 21 20 19 18 18 18 18 21 23 24 24 23 23 23 22 22 23 24 26 27 26 26 26 26 26 26 28 31 31 30 33 35 32 30 29 27 26 28 26 24 24 24 24 23 24 26 25 24 27 28 28 31 33 34 35 36 36 36 35 35 35 35
19 18 18 16 16 16 17 16 16 16 16 16 15 14 14 15 14 13 13 14 16 19 21 22 22 22 20 18 19 20 22 22 21 21 21 21 21 22 23 24 26 28 27 26 27 28 29 29 29 32 37 38 37 40 42 39 35 32 30 28 28 27 26 27 29 31 28 25 26 23 19 24 28 27 30 34 32 33 34 35 36 36 35 34 34
19 17 16 15 15 15 16 16 16 16 14 14 15 14 13 13 13 13 13 14 16 18 21 21 22 22 20 19 20 21 22 21 19 19 19 19 20 22 24 26 28 28 26 25 27 29 30 33 36 39 43 44 44 45 45 42 38 36 35 35 34 31 30 29 28 30 29 28 29 23 14 19 26 26 29 33 31 31 33 33 33 34 34 33 34
18 17 16 16 16 16 17 17 16 13 10 11 12 12 13 16 16 14 12 13 15 18 19 19 19 20 20 20 20 20 20 19 18 17 17 18 20 22 25 27 27 28 27 27 28 30 32 38 43 45 46 47 47 47 47 45 42 39 36 34 35 33 29 24 21 23 25 25 29 27 17 17 24 26 27 30 29 29 32 32 32 33 34 34 34
18 17 16 16 17 18 18 16 12 9 10 12 13 13 14 15 14 12 10 13 16 18 18 17 18 19 20 21 20 20 19 17 16 16 16 17 19 22 24 25 25 27 28 29 31 34 37 42 45 45 46 47 47 48 47 44 43 41 36 31 29 28 22 15 12 16 20 21 26 28 22 18 22 25 25 24 26 28 29 30 33 33 33 34 34
15 13 13 16 17 15 11 9 8 9 12 15 17 18 15 10 8 9 12 15 16 15 15 15 16 18 19 19 19 18 16 16 16 16 16 17 19 20 20 21 22 25 27 30 33 37 40 42 44 46 47 47 48 47 43 38 35 36 38 37 32 26 19 13 10 13 17 20 25 26 22 20 23 24 21 17 18 25 29 29 31 33 32 33 33
10 9 10 12 12 9 7 8 9 11 14 15 17 16 12 7 7 11 12 13 12 12 12 14 15 16 18 18 17 15 14 14 15 15 16 16 16 15 16 18 20 23 26 30 31 34 38 41 44 48 49 48 48 45 40 34 27 27 36 42 39 29 22 19 15 12 10 13 23 27 22 19 23 24 19 11 7 15 26 29 29 32 33 33 33
Wind_Direction
235 243 248 247 247 253 254 242 232 246 260 264 268 271 276 280 281 284 286 289 288 288 295 301 301 300 301 299 294 291 287 282 272 259 247 236 223 208 205 206 203 204 210 211 210 212 213 212 215 216 217 214 207 204 205 207 209 210 211 210 210 210 211 213 215 216 215 214 215 217 220 222 225 228 229 228 226 226 226 225 225 227 232 233 233
232 242 248 247 253 262 260 252 249 260 269 270 271 275 281 282 281 285 290 293 292 290 293 296 296 297 303 305 302 297 290 284 271 254 246 237 229 220 214 211 210 208 210 213 213 215 215 215 216 217 218 219 214 209 207 207 209 212 214 213 213 212 213 214 216 217 218 218 218 220 222 224 227 231 232 232 231 231 229 229 229 229 231 231 231
232 240 247 253 262 270 270 270 271 274 276 272 271 278 286 289 286 289 294 295 296 293 286 283 287 292 298 300 300 297 291 286 274 255 241 232 230 230 223 216 217 217 214 214 216 217 218 218 219 219 219 220 220 216 211 210 209 211 214 215 215 214 215 215 216 217 219 221 222 223 224 226 229 232 233 233 233 232 231 231 232 235 235 233 233
238 246 249 256 264 270 274 277 282 285 281 276 274 275 279 284 292 299 297 294 293 288 281 278 282 289 293 296 295 290 284 284 276 261 252 246 240 235 230 222 219 223 221 219 219 219 220 221 222 222 222 222 223 221 217 214 212 211 212 215 216 216 216 216 217 217 219 221 223 225 226 227 230 232 233 233 233 233 233 233 236 239 239 238 237
245 254 257 261 268 273 275 278 287 288 275 269 267 263 261 266 287 296 293 290 289 287 284 280 284 291 294 298 299 294 283 277 275 271 268 264 259 251 241 233 227 227 228 225 223 222 222 223 225 226 226 224 224 224 221 219 216 214 213 214 216 217 217 218 218 218 219 220 222 225 227 227 229 231 233 234 235 235 236 237 238 240 240 240 241
256 259 263 267 272 277 279 281 282 277 270 269 275 282 283 285 294 297 290 285 283 281 279 280 287 292 293 299 301 300 292 277 274 274 273 272 268 263 254 246 239 234 232 230 228 225 223 225 227 228 229 228 227 225 225 223 221 218 216 215 216 218 219 219 220 220 220 221 222 225 227 229 230 231 233 236 237 238 238 238 239 240 240 240 241
255 259 266 271 275 278 280 283 277 273 276 281 289 295 296 297 298 298 293 286 281 278 279 285 292 292 293 299 301 300 295 285 283 281 278 273 267 263 258 253 246 241 238 234 230 228 226 226 228 229 230 231 230 228 227 226 225 223 220 219 218 218 219 221 222 223 222 222 223 224 227 229 231 232 234 236 238 238 238 239 241 242 241 241 241
255 264 271 273 276 277 277 277 275 276 279 283 288 292 294 295 293 289 287 286 284 282 282 286 291 293 296 298 297 293 288 284 280 278 276 269 262 261 258 255 252 249 245 238 234 234 231 229 229 230 232 233 232 231 230 229 227 226 224 222 220 220 221 222 224 225 224 224 224 225 227 229 231 233 235 236 237 238 240 240 241 242 242 242 242
262 270 273 274 276 278 277 274 274 279 282 283 286 289 290 290 286 282 281 281 280 278 278 282 285 289 295 295 293 292 291 288 282 275 267 259 255 256 255 255 257 255 250 244 241 240 239 236 232 231 232 234 235 234 233 231 230 229 227 225 223 222 222 223 224 226 226 226 226 227 228 230 232 233 235 236 237 238 240 241 241 241 243 244 244
268 275 278 280 284 285 284 280 277 280 282 284 284 285 285 280 276 276 277 278 280 283 285 287 286 287 289 291 292 292 291 289 288 280 265 258 255 253 253 256 258 258 254 250 247 245 245 245 241 235 233 233 235 237 236 234 232 231 230 229 226 224 223 224 225 226 228 228 228 229 229 231 232 234 235 236 237 238 239 240 240 242 244 246 247
275 286 295 297 298 297 298 293 288 287 287 288 289 289 289 282 278 282 286 285 284 285 285 285 286 288 291 297 300 300 296 286 278 274 268 264 264 260 257 256 257 258 257 255 254 251 248 249 246 241 238 236 234 236 238 237 234 233 232 232 230 228 225 225 225 226 228 229 230 230 230 231 233 234 235 237 239 239 240 240 242 244 246 247 248
284 295 303 304 304 302 304 307 306 305 303 304 309 308 305 298 290 293 301 300 295 293 290 290 292 293 296 303 309 310 307 299 282 270 265 263 266 266 263 259 256 256 257 257 257 255 253 252 251 248 246 242 238 236 237 238 237 235 233 233 232 231 229 228 227 226 227 228 230 231 232 233 234 235 235 237 239 241 242 243 244 245 247 248 249
294 301 303 305 309 306 305 308 305 302 305 308 312 312 309 305 298 295 298 298 300 304 307 304 294 293 302 307 309 309 310 308 298 283 272 265 263 262 260 260 259 256 256 255 251 250 251 251 252 252 250 248 245 241 238 238 238 237 235 234 233 233 233 231 230 229 228 228 230 231 233 234 235 236 236 237 239 241 243 244 246 246 247 248 248
305 292 295 299 298 299 298 294 291 294 300 301 300 300 298 298 296 293 293 291 294 303 309 303 282 286 310 314 311 316 319 311 306 301 293 282 272 264 259 258 258 256 254 256 255 251 249 247 247 250 251 249 247 245 242 239 238 238 237 236 234 233 234 234 233 231 230 230 231 232 233 235 236 237 237 238 239 241 242 244 245 246 247 247 247
299 288 295 296 289 290 290 283 285 293 297 300 299 298 296 291 285 281 284 286 285 292 301 296 283 294 315 316 314 329 323 321 329 322 315 305 289 273 262 260 261 259 258 260 261 258 254 251 247 246 248 247 246 247 247 243 239 239 238 238 237 235 234 235 235 234 233 232 232 232 233 234 236 238 238 239 240 241 242 243 244 245 245 245 245
316 331 335 342 338 330 315 301 306 309 304 310 307 305 313 307 293 284 280 283 284 288 292 288 291 302 312 301 320 325 297 335 344 326 323 325 304 283 271 273 278 276 270 267 266 265 262 258 253 249 247 246 246 247 248 248 245 243 242 241 240 238 236 235 236 236 236 235 234 234 234 234 236 238 239 240 240 241 242 243 243 244 243 243 244
16 355 344 355 6 8 2 350 345 337 325 331 326 328 346 344 324 311 295 289 291 294 296 295 296 293 275 271 302 285 267 342 342 322 322 326 317 306 298 297 298 294 285 278 274 271 269 265 260 255 252 250 250 249 248 248 248 247 245 244 243 242 240 238 237 237 237 237 237 237 236 236 236 238 239 240 241 241 242 243 242 242 242 242 244
15 345 322 332 353 356 4 8 0 1 360 355 350 350 0 1 352 343 330 314 305 301 306 315 318 302 282 275 276 269 276 313 331 316 314 316 318 315 308 311 312 303 292 287 283 278 275 272 266 261 258 254 251 250 251 250 249 248 246 244 244 246 245 242 239 238 238 238 238 239 239 239 238 238 239 240 241 242 242 242 242 241 241 241 243
330 329 309 331 18 353 355 18 16 10 13 12 6 2 2 0 359 1 356 341 323 309 311 322 328 320 311 304 297 292 292 296 291 286 313 314 317 315 312 320 322 310 296 290 287 284 282 279 274 268 262 256 251 251 254 254 252 251 249 244 243 245 247 247 244 241 240 239 239 239 240 241 241 240 240 241 241 242 242 242 242 241 240 241 243
312 319 301 322 342 320 340 25 25 6 6 16 13 6 4 2 2 3 356 344 334 321 314 318 321 320 323 327 325 319 310 298 284 279 286 303 311 314 316 322 321 315 306 298 294 291 287 284 281 275 267 262 257 255 256 255 252 251 250 249 246 244 244 246 248 245 242 241 240 239 240 240 242 242 242 241 242 242 242 242 242 241 241 241 243
300 304 308 325 328 302 331 7 0 356 5 12 7 3 7 8 7 3 357 348 340 330 324 327 327 326 329 331 333 334 330 320 300 287 271 270 296 309 315 318 318 315 311 306 305 301 295 289 285 280 272 266 263 261 258 254 251 251 250 251 251 249 246 244 246 247 246 244 241 240 240 240 241 242 243 243 243 243 243 243 242 242 243 243 245
295 304 308 321 320 276 333 350 341 342 357 356 353 0 2 2 5 3 359 353 349 347 347 348 346 344 348 343 338 339 337 331 325 317 297 264 261 282 302 310 312 309 307 304 303 299 296 293 288 282 274 267 265 264 261 257 255 255 254 253 253 253 252 248 244 244 245 246 244 243 241 241 241 241 243 244 244 243 243 243 243 243 244 245 246
305 309 301 320 331 311 334 340 328 328 333 336 347 2 358 356 2 2 359 357 354 355 355 358 357 355 3 1 347 343 337 326 326 325 315 282 278 286 294 299 299 300 303 304 302 296 293 293 289 283 275 267 263 263 265 263 261 260 258 256 255 255 255 254 249 244 243 244 245 245 244 242 242 241 242 244 245 245 244 244 244 244 244 246 246
295 298 288 315 342 332 329 318 308 319 321 325 336 347 348 352 357 353 352 350 346 347 351 359 360 355 1 2 356 352 343 336 333 328 322 311 306 294 297 305 300 296 303 305 302 298 294 292 288 283 275 269 266 266 267 267 266 263 259 257 256 255 254 253 250 247 245 243 243 245 246 244 242 242 241 241 243 245 245 244 245 245 245 246 246
277 297 292 287 299 310 315 296 294 309 310 314 324 333 340 343 342 340 341 342 335 333 342 354 358 351 348 348 353 358 351 345 340 332 328 322 316 306 304 308 298 294 304 304 299 298 296 292 290 285 277 271 269 270 269 269 270 267 263 259 257 256 254 252 250 247 246 245 242 241 244 246 244 242 241 241 241 244 245 245 245 245 246 246 246
268 289 291 289 295 301 302 293 292 299 302 304 310 319 325 325 328 331 334 339 328 320 330 340 345 345 340 339 344 349 347 346 344 338 334 328 321 317 314 311 302 296 301 302 299 296 294 294 293 287 281 275 272 271 271 271 272 272 268 263 260 258 256 254 251 247 245 245 242 239 241 245 246 243 241 241 241 242 244 244 245 245 246 246 246
247 272 287 292 294 292 295 300 300 297 293 294 298 302 305 311 317 320 324 328 311 305 315 320 324 331 331 330 333 336 339 344 346 340 336 333 328 326 324 319 311 307 303 303 301 293 291 296 295 289 284 280 277 273 271 272 274 275 272 267 264 261 258 258 254 248 245 243 241 240 240 244 245 244 242 242 242 243 244 244 245 245 246 246 246
244 264 284 277 274 288 298 301 300 297 293 294 296 292 291 299 308 311 315 313 299 293 294 301 312 323 328 327 325 328 335 341 341 338 336 335 334 332 328 321 315 315 313 308 303 297 299 301 298 294 290 287 284 279 275 274 275 277 275 270 265 261 258 258 254 248 244 242 241 240 240 241 242 242 242 242 242 243 244 245 245 245 246 246 247
235 251 269 270 277 292 302 303 301 300 298 299 297 290 286 291 299 306 308 305 300 292 285 294 310 316 315 318 319 321 327 332 336 339 340 338 337 335 331 324 317 311 310 311 307 303 305 305 300 297 297 293 289 286 281 278 277 276 274 270 265 261 257 256 252 245 241 241 241 239 239 239 238 239 241 242 242 243 244 244 245 246 246 247 247
236 262 266 267 278 286 290 295 298 299 301 303 300 294 291 292 296 301 302 299 297 295 291 293 304 307 302 304 308 311 314 322 332 337 340 343 343 339 335 330 323 313 305 308 304 303 308 309 305 301 300 297 291 287 283 279 278 276 271 267 264 263 260 257 253 247 241 241 242 242 242 240 238 240 242 242 241 242 244 244 245 246 246 247 248
246 251 246 260 277 281 283 290 293 295 300 304 305 302 295 292 293 295 296 292 289 289 288 289 291 289 288 293 295 296 303 314 325 332 339 345 345 341 337 334 330 322 311 304 300 304 310 310 307 305 303 298 293 289 282 277 275 274 270 267 266 265 263 259 257 252 246 244 245 246 244 241 240 242 243 243 242 241 242 244 246 246 247 248 248
243 243 252 271 280 281 285 292 295 295 293 292 295 297 293 291 293 292 289 287 286 281 277 279 279 275 280 287 287 292 300 305 313 325 337 342 340 338 337 334 334 329 315 302 294 300 306 307 307 307 306 302 296 290 283 277 273 269 267 266 266 265 262 259 258 256 251 249 248 246 244 242 242 244 244 244 243 241 240 242 244 246 248 248 249
239 244 259 272 277 276 279 285 289 289 288 285 285 286 286 289 290 286 283 282 283 279 275 278 273 270 281 284 280 291 299 291 297 315 328 334 334 332 335 336 333 329 316 302 293 297 304 309 309 308 308 305 296 290 284 278 272 268 265 263 263 262 259 258 258 257 254 251 250 247 245 244 244 245 246 245 244 243 240 240 242 245 248 249 249
244 249 259 265 270 270 272 279 281 280 284 285 281 274 275 284 286 282 280 278 277 277 277 279 276 272 277 277 278 289 291 280 285 303 316 320 321 322 330 335 326 322 317 303 294 293 301 309 312 310 309 306 298 291 286 279 273 269 265 262 260 258 258 257 256 256 256 255 254 250 248 247 245 245 246 245 245 244 241 240 241 243 247 250 250
245 250 255 257 260 263 266 274 277 277 282 282 278 269 268 279 286 283 280 275 275 279 278 277 277 274 271 269 274 281 276 269 275 290 305 306 304 309 319 326 318 314 316 308 297 293 297 305 310 309 307 306 300 294 287 281 275 269 265 262 258 255 256 255 254 255 257 258 257 254 252 249 247 246 245 246 247 245 241 240 241 243 246 249 250
244 249 253 253 259 265 269 276 279 276 275 276 276 270 266 276 287 286 283 277 275 279 279 276 275 274 273 269 269 274 270 264 267 279 292 292 293 299 307 313 311 309 312 309 301 296 297 301 306 307 305 303 300 296 289 282 278 270 262 259 257 254 254 254 253 254 256 258 259 257 254 251 249 247 246 246 247 245 241 240 240 241 244 247 250
237 242 247 255 265 272 277 285 287 278 271 275 283 277 270 275 284 287 286 283 279 277 277 276 274 273 274 272 271 271 267 262 262 270 281 285 288 293 299 304 307 306 307 306 303 302 299 298 302 305 304 301 299 297 292 285 280 272 262 257 255 254 254 254 253 253 254 256 257 256 254 252 251 250 248 247 246 244 241 240 240 241 243 245 249
221 235 250 261 268 277 283 290 297 290 287 290 292 288 280 277 283 287 289 288 285 279 277 278 278 276 275 276 277 273 265 262 261 263 271 280 284 289 295 302 305 304 302 301 304 306 304 300 301 303 303 301 299 298 296 292 283 274 264 258 255 252 251 252 250 250 251 251 252 253 251 250 252 250 247 246 245 242 241 240 241 242 242 244 249
239 258 266 268 276 286 286 289 297 298 298 295 290 288 283 279 281 285 289 291 287 282 282 285 285 282 281 282 282 276 269 266 263 261 267 274 281 289 296 301 304 302 299 300 305 308 306 303 302 301 300 300 299 297 298 298 290 277 267 260 257 253 250 248 246 246 247 247 248 249 250 251 254 250 245 244 244 242 239 239 240 241 242 244 248
269 278 278 277 285 288 286 289 293 292 292 291 286 285 284 281 280 283 287 289 287 285 287 291 292 289 288 289 287 280 274 271 267 265 269 272 278 289 296 300 301 298 297 300 305 308 307 303 301 302 301 299 297 297 299 300 295 281 267 256 254 254 251 249 246 245 243 242 243 245 246 248 249 246 242 242 244 242 239 238 239 240 242 244 246
273 281 283 283 283 281 282 286 284 282 291 295 287 283 284 281 278 280 284 284 281 283 286 292 297 297 296 297 296 289 281 275 273 273 275 276 279 286 294 298 298 296 297 300 303 305 306 303 302 303 302 299 296 297 298 297 294 289 279 264 254 253 253 251 249 246 242 240 241 242 241 241 241 240 239 241 243 241 239 238 238 240 241 242 243
267 270 274 279 278 277 280 280 275 280 291 291 282 280 282 280 274 271 274 276 274 275 280 285 290 295 299 300 303 301 293 284 282 281 280 280 281 285 292 295 293 292 295 298 300 303 304 302 303 304 303 300 297 294 291 290 290 292 291 280 263 255 254 252 251 248 242 237 235 237 239 238 236 236 238 241 242 240 238 238 237 237 239 240 241
259 260 265 271 273 275 276 275 276 280 284 284 283 284 284 282 275 268 269 272 271 272 275 277 281 288 292 297 303 305 298 291 289 287 284 282 282 285 290 292 289 289 295 295 294 299 303 301 301 302 299 296 296 293 289 287 287 286 287 284 272 257 250 248 248 247 240 232 227 230 236 235 231 232 236 240 240 238 237 237 237 238 238 240 240
255 256 259 264 268 271 270 271 277 280 282 286 288 289 290 288 283 277 274 273 272 273 273 274 279 282 285 293 302 302 298 297 294 292 292 292 291 289 289 291 289 290 297 298 294 297 302 299 297 298 296 294 294 292 287 285 284 282 280 280 275 263 251 245 242 241 239 231 222 225 234 234 229 229 233 237 238 238 239 239 239 240 240 239 239
253 254 256 260 265 268 265 265 274 280 283 287 290 294 296 293 288 284 282 280 278 279 279 280 281 279 280 290 298 299 305 308 303 299 300 302 302 297 290 290 290 292 301 305 303 303 304 299 294 294 295 295 291 289 286 282 279 276 274 273 273 268 256 247 243 242 240 231 219 219 232 234 227 226 230 234 236 238 240 241 241 242 242 240 238
251 254 256 259 266 268 265 265 273 279 284 289 292 295 295 288 283 283 286 286 284 284 284 284 281 277 279 287 291 297 310 316 312 309 309 309 308 304 297 294 293 296 303 308 309 309 307 305 302 298 298 297 293 289 286 279 272 268 265 264 266 267 263 255 248 244 242 234 221 217 228 234 226 223 229 232 232 234 237 240 242 242 242 240 237
251 254 255 260 269 273 272 272 272 275 284 292 292 292 294 289 280 280 285 287 289 290 289 288 283 277 279 284 286 296 311 316 314 314 315 314 310 304 300 297 296 300 303 306 310 310 307 309 309 305 303 301 296 292 287 278 268 261 258 257 258 262 267 265 256 247 242 235 224 214 221 235 226 220 228 232 230 231 233 236 240 241 241 240 236
249 253 256 262 269 272 275 276 273 273 288 300 298 299 306 301 284 274 278 286 293 296 295 293 286 279 279 281 283 296 310 312 313 315 313 310 308 302 298 297 299 301 300 302 308 310 310 314 314 311 309 307 302 297 290 282 270 258 253 254 253 253 257 258 254 247 241 232 222 212 214 236 230 220 227 231 228 230 231 231 234 238 239 238 236
248 257 265 269 268 269 274 275 272 277 288 293 293 295 302 300 282 270 282 295 298 298 296 292 285 281 280 279 284 298 305 307 313 316 309 306 306 302 301 302 304 303 303 305 310 313 318 320 319 317 316 313 309 303 296 289 277 260 247 243 242 239 241 243 241 241 236 227 221 214 211 228 231 223 225 229 227 228 230 229 230 234 236 237 237
251 265 276 274 268 269 275 274 273 285 292 295 298 296 293 289 281 289 302 302 300 301 301 296 289 285 282 283 291 299 300 305 314 312 307 309 309 307 310 313 310 307 308 313 316 321 324 325 325 326 325 322 320 314 305 297 284 259 239 232 230 228 231 237 231 228 230 226 221 214 210 220 227 222 218 223 228 230 229 229 229 230 232 235 236
254 277 285 276 268 271 284 286 290 300 306 311 311 304 292 285 297 307 306 301 304 311 309 301 296 292 289 293 299 299 299 307 311 306 309 315 315 319 327 323 313 310 313 318 323 326 326 328 332 332 329 327 327 324 317 311 294 258 236 229 225 222 225 233 230 221 223 225 218 212 208 216 221 216 207 201 222 235 231 230 230 229 230 232 233